Location: Unspecified
(41.5000°N, 0.0000°E)
Time: 01:01:04
(UTC+00:00)

N. Korean satellite - Visible Passes

Search period start: 15 October 2019 00:00
Search period end: 25 October 2019 00:00
Orbit: 455 x 508 km, 97.2° (Epoch: 14 October)

Date Brightness Start Highest point End Pass type
(mag) Time Alt. Az. Time Alt. Az. Time Alt. Az.
15 Oct 8.9 05:23:35 10° NE 05:26:46 30° E 05:29:59 10° SSE visible
16 Oct 10.1 04:59:13 10° ENE 05:01:21 15° E 05:03:29 10° SE visible
17 Oct 10.5 18:17:31 10° WSW 18:18:34 11° W 18:19:37 10° WNW visible
18 Oct 7.6 05:40:49 10° NNE 05:44:21 51° E 05:47:54 10° S visible
18 Oct 9.4 17:50:19 10° SSW 17:53:05 23° W 17:55:52 10° NW visible
19 Oct 9.3 05:15:58 10° NE 05:18:58 24° E 05:21:59 10° SSE visible
20 Oct 10.3 04:51:57 10° ENE 04:53:30 12° E 04:55:04 10° ESE visible
21 Oct 10.1 18:08:48 10° SW 18:10:40 14° W 18:12:33 10° WNW visible
22 Oct 8.2 05:33:03 10° NNE 05:36:31 41° E 05:40:00 10° S visible
22 Oct 8.9 17:42:11 10° SSW 17:45:12 28° W 17:48:15 10° NW visible
23 Oct 9.7 05:08:21 10° NE 05:11:07 20° E 05:13:53 10° SE visible
